FJL840 OPKC-OPLA

Flight info

Callsign FJL840
Flight time 1h 26m
Altitude 37000
Route BADUL J112 MIMAL
Aircraft A320/M-SDE3FGHIRWY/LB1

Departure

Time 2026-05-06 12:22
Airport Jinnah International Airport (OPKC)

Arrival

Time 2026-05-06 13:48
Airport Allama Iqbal International Airport (OPLA)
Time Latitude Longitude Altitude Speed Heading
2026-05-06 11:48 24.90236 67.16853 101 ft 0 kts 88°
2026-05-06 12:12 24.90236 67.16846 101 ft 4 kts 85°
2026-05-06 12:12 24.90230 67.16817 101 ft 4 kts 63°
2026-05-06 12:12 24.90215 67.16794 99 ft 4 kts 40°
2026-05-06 12:13 24.90192 67.16779 99 ft 4 kts 15°
2026-05-06 12:13 24.90169 67.16776 99 ft 1 kts 344°
2026-05-06 12:13 24.90169 67.16777 99 ft 0 kts 344°
2026-05-06 12:16 24.90187 67.16771 99 ft 16 kts 344°
2026-05-06 12:16 24.90231 67.16757 101 ft 0 kts 344°
2026-05-06 12:17 24.90240 67.16755 101 ft 6 kts 344°
2026-05-06 12:17 24.90279 67.16742 101 ft 5 kts 344°
2026-05-06 12:17 24.90328 67.16727 101 ft 14 kts 344°
2026-05-06 12:17 24.90419 67.16699 101 ft 13 kts 345°
2026-05-06 12:18 24.90484 67.16730 100 ft 10 kts 64°
2026-05-06 12:18 24.90502 67.16799 102 ft 10 kts 74°
2026-05-06 12:18 24.90534 67.16928 102 ft 19 kts 75°
2026-05-06 12:18 24.90568 67.17060 102 ft 17 kts 74°
2026-05-06 12:19 24.90599 67.17180 101 ft 16 kts 73°
2026-05-06 12:19 24.90628 67.17290 101 ft 14 kts 74°
2026-05-06 12:19 24.90660 67.17390 102 ft 13 kts 61°
2026-05-06 12:19 24.90723 67.17447 103 ft 11 kts 30°
2026-05-06 12:20 24.90762 67.17472 104 ft 0 kts 30°
2026-05-06 12:20 24.90766 67.17475 104 ft 5 kts 30°
2026-05-06 12:20 24.90826 67.17489 106 ft 8 kts 352°
2026-05-06 12:21 24.90864 67.17459 107 ft 5 kts 296°
2026-05-06 12:21 24.90859 67.17420 107 ft 6 kts 262°
2026-05-06 12:21 24.90855 67.17402 107 ft 1 kts 255°
2026-05-06 12:21 24.90807 67.17210 107 ft 68 kts 254°
2026-05-06 12:22 24.90602 67.16404 103 ft 147 kts 254°
2026-05-06 12:22 24.90297 67.15150 449 ft 187 kts 255°
2026-05-06 12:22 24.89949 67.13610 1027 ft 217 kts 259°
2026-05-06 12:22 24.90154 67.11946 1810 ft 230 kts 297°
2026-05-06 12:23 24.91346 67.10726 2515 ft 248 kts 334°
2026-05-06 12:23 24.93096 67.10522 3171 ft 265 kts 11°
2026-05-06 12:23 24.94700 67.11513 3925 ft 271 kts 46°
2026-05-06 12:23 24.95768 67.13215 4797 ft 270 kts 61°
2026-05-06 12:24 24.96062 67.13822 5082 ft 271 kts 61°
2026-05-06 12:24 24.96623 67.14997 5621 ft 270 kts 60°
2026-05-06 12:24 24.97497 67.16832 6382 ft 271 kts 60°
2026-05-06 12:24 24.98367 67.18664 6669 ft 268 kts 60°
2026-05-06 12:25 24.99280 67.20468 6755 ft 265 kts 53°
2026-05-06 12:25 25.00336 67.22085 6779 ft 262 kts 49°
2026-05-06 12:25 25.01504 67.23676 6783 ft 264 kts 48°
2026-05-06 12:25 25.02682 67.25233 6774 ft 264 kts 47°
2026-05-06 12:26 25.03856 67.26792 6782 ft 264 kts 47°
2026-05-06 12:26 25.05022 67.28358 6787 ft 264 kts 48°
2026-05-06 12:26 25.06268 67.29875 6818 ft 276 kts 37°
2026-05-06 12:26 25.07802 67.31211 7404 ft 284 kts 36°
2026-05-06 12:27 25.09357 67.32575 8209 ft 286 kts 36°
2026-05-06 12:27 25.10915 67.33949 9025 ft 287 kts 37°
2026-05-06 12:27 25.12481 67.35333 9805 ft 290 kts 36°
2026-05-06 12:27 25.14105 67.36766 10166 ft 310 kts 36°
2026-05-06 12:28 25.15855 67.38305 10350 ft 333 kts 36°
2026-05-06 12:28 25.17732 67.39953 10511 ft 355 kts 37°
2026-05-06 12:28 25.19689 67.41678 10976 ft 363 kts 36°
2026-05-06 12:28 25.21670 67.43428 11647 ft 367 kts 36°
2026-05-06 12:29 25.23673 67.45197 12291 ft 371 kts 36°
2026-05-06 12:29 25.25692 67.46983 12980 ft 373 kts 36°
2026-05-06 12:29 25.27723 67.48779 13641 ft 376 kts 36°
2026-05-06 12:29 25.29778 67.50594 14194 ft 380 kts 36°
2026-05-06 12:30 25.31851 67.52422 14774 ft 383 kts 36°
2026-05-06 12:30 25.33940 67.54266 15318 ft 386 kts 36°
2026-05-06 12:30 25.36056 67.56134 15794 ft 392 kts 36°
2026-05-06 12:30 25.38193 67.58023 16325 ft 395 kts 36°
2026-05-06 12:31 25.40352 67.59933 16868 ft 398 kts 36°
2026-05-06 12:31 25.42494 67.61827 17392 ft 401 kts 36°
2026-05-06 12:31 25.44685 67.63765 17927 ft 404 kts 36°
2026-05-06 12:31 25.46891 67.65716 18371 ft 408 kts 36°
2026-05-06 12:32 25.49114 67.67685 18794 ft 411 kts 35°
2026-05-06 12:32 25.51347 67.69668 19241 ft 413 kts 35°
2026-05-06 12:32 25.53597 67.71665 19689 ft 415 kts 35°
2026-05-06 12:32 25.55857 67.73669 20133 ft 418 kts 35°
2026-05-06 12:33 25.58133 67.75688 20579 ft 420 kts 35°
2026-05-06 12:33 25.60454 67.77752 21015 ft 423 kts 35°
2026-05-06 12:33 25.62750 67.79796 21436 ft 426 kts 35°
2026-05-06 12:33 25.65065 67.81859 21846 ft 428 kts 34°
2026-05-06 12:34 25.67393 67.83933 22249 ft 430 kts 34°
2026-05-06 12:34 25.69732 67.86014 22654 ft 433 kts 34°
2026-05-06 12:34 25.72087 67.88109 23044 ft 435 kts 34°
2026-05-06 12:34 25.74445 67.90213 23450 ft 436 kts 34°
2026-05-06 12:35 25.76814 67.92328 23793 ft 437 kts 34°
2026-05-06 12:35 25.79192 67.94448 24100 ft 439 kts 33°
2026-05-06 12:35 25.81577 67.96573 24406 ft 442 kts 33°
2026-05-06 12:35 25.83979 67.98714 24699 ft 444 kts 33°
2026-05-06 12:36 25.86393 68.00868 24984 ft 446 kts 33°
2026-05-06 12:36 25.87996 68.02302 25163 ft 448 kts 33°
2026-05-06 12:36 25.90429 68.04483 25459 ft 450 kts 33°
2026-05-06 12:36 25.92869 68.06672 25730 ft 452 kts 33°
2026-05-06 12:37 25.95326 68.08877 26000 ft 454 kts 32°
2026-05-06 12:37 25.97788 68.11082 26256 ft 457 kts 32°
2026-05-06 12:37 26.00270 68.13305 26501 ft 459 kts 32°
2026-05-06 12:37 26.02757 68.15533 26757 ft 461 kts 32°
2026-05-06 12:38 26.05261 68.17777 27007 ft 462 kts 32°
2026-05-06 12:38 26.07766 68.20026 27285 ft 464 kts 32°
2026-05-06 12:38 26.10290 68.22293 27515 ft 467 kts 32°
2026-05-06 12:38 26.12823 68.24570 27759 ft 468 kts 31°
2026-05-06 12:39 26.15352 68.26844 28115 ft 468 kts 31°
2026-05-06 12:39 26.17886 68.29126 28469 ft 467 kts 31°
2026-05-06 12:39 26.20406 68.31399 28809 ft 467 kts 31°
2026-05-06 12:39 26.22924 68.33672 29152 ft 466 kts 31°
2026-05-06 12:40 26.25446 68.35950 29496 ft 466 kts 30°
2026-05-06 12:40 26.27958 68.38219 29826 ft 465 kts 30°
2026-05-06 12:40 26.30476 68.40490 30096 ft 465 kts 30°
2026-05-06 12:40 26.32993 68.42760 30357 ft 465 kts 30°
2026-05-06 12:41 26.35511 68.45026 30608 ft 466 kts 30°
2026-05-06 12:41 26.38032 68.47300 30879 ft 466 kts 30°
2026-05-06 12:41 26.40550 68.49578 31146 ft 467 kts 30°
2026-05-06 12:41 26.43076 68.51867 31396 ft 468 kts 30°
2026-05-06 12:42 26.45601 68.54157 31671 ft 468 kts 30°
2026-05-06 12:42 26.48128 68.56445 31955 ft 468 kts 30°
2026-05-06 12:42 26.50655 68.58733 32227 ft 468 kts 30°
2026-05-06 12:42 26.53188 68.61029 32496 ft 468 kts 30°
2026-05-06 12:43 26.55714 68.63320 32765 ft 469 kts 30°
2026-05-06 12:43 26.58250 68.65623 33033 ft 469 kts 30°
2026-05-06 12:43 26.60781 68.67924 33304 ft 470 kts 30°
2026-05-06 12:43 26.63319 68.70235 33585 ft 470 kts 30°
2026-05-06 12:44 26.65850 68.72543 33830 ft 471 kts 30°
2026-05-06 12:44 26.68389 68.74858 34082 ft 470 kts 30°
2026-05-06 12:44 26.70924 68.77171 34338 ft 470 kts 30°
2026-05-06 12:44 26.73458 68.79483 34576 ft 470 kts 30°
2026-05-06 12:45 26.75993 68.81796 34830 ft 469 kts 30°
2026-05-06 12:45 26.78518 68.84100 35058 ft 469 kts 30°
2026-05-06 12:45 26.83572 68.88715 35552 ft 468 kts 30°
2026-05-06 12:46 26.86092 68.91016 35798 ft 467 kts 30°
2026-05-06 12:46 26.88611 68.93320 36021 ft 467 kts 30°
2026-05-06 12:46 26.91122 68.95617 36231 ft 466 kts 30°
2026-05-06 12:46 26.93633 68.97916 36435 ft 466 kts 30°
2026-05-06 12:47 26.96141 69.00218 36621 ft 466 kts 31°
2026-05-06 12:47 27.01174 69.04844 36690 ft 469 kts 31°
2026-05-06 12:48 27.06190 69.09445 36707 ft 469 kts 30°
2026-05-06 12:48 27.11228 69.14068 36696 ft 468 kts 30°
2026-05-06 12:49 27.16262 69.18701 36690 ft 468 kts 30°
2026-05-06 12:49 27.21288 69.23338 36688 ft 467 kts 30°
2026-05-06 12:50 27.26302 69.27973 36692 ft 466 kts 30°
2026-05-06 12:50 27.31343 69.32539 36694 ft 465 kts 29°
2026-05-06 12:51 27.36439 69.37026 36692 ft 465 kts 29°
2026-05-06 12:51 27.41526 69.41515 36713 ft 465 kts 29°
2026-05-06 12:52 27.46600 69.46031 36708 ft 465 kts 29°
2026-05-06 12:52 27.51658 69.50567 36703 ft 465 kts 29°
2026-05-06 12:53 27.56723 69.55102 36713 ft 465 kts 29°
2026-05-06 12:53 27.61783 69.59628 36706 ft 464 kts 29°
2026-05-06 12:54 27.66844 69.64160 36700 ft 465 kts 29°
2026-05-06 12:54 27.71902 69.68705 36720 ft 465 kts 29°
2026-05-06 12:55 27.76952 69.73253 36707 ft 464 kts 29°
2026-05-06 12:55 27.82003 69.77801 36699 ft 464 kts 29°
2026-05-06 12:56 27.87055 69.82338 36699 ft 464 kts 29°
2026-05-06 12:56 27.92104 69.86890 36706 ft 464 kts 29°
2026-05-06 12:57 27.97147 69.91446 36688 ft 464 kts 30°
2026-05-06 12:57 28.02197 69.96011 36688 ft 464 kts 30°
2026-05-06 12:58 28.07246 70.00577 36711 ft 464 kts 30°
2026-05-06 12:58 28.12287 70.05150 36698 ft 464 kts 30°
2026-05-06 12:59 28.17331 70.09728 36694 ft 464 kts 30°
2026-05-06 12:59 28.22375 70.14307 36691 ft 464 kts 30°
2026-05-06 13:00 28.27416 70.18893 36685 ft 464 kts 30°
2026-05-06 13:00 28.32451 70.23483 36703 ft 465 kts 30°
2026-05-06 13:01 28.37401 70.28228 36718 ft 473 kts 38°
2026-05-06 13:01 28.41873 70.33678 36703 ft 475 kts 38°
2026-05-06 13:02 28.46370 70.39180 36695 ft 475 kts 38°
2026-05-06 13:02 28.50859 70.44686 36691 ft 475 kts 39°
2026-05-06 13:03 28.55376 70.50239 36689 ft 475 kts 38°
2026-05-06 13:03 28.59837 70.55714 36702 ft 475 kts 38°
2026-05-06 13:04 28.64330 70.61230 36696 ft 475 kts 39°
2026-05-06 13:04 28.68819 70.66760 36692 ft 475 kts 39°
2026-05-06 13:05 28.73306 70.72291 36706 ft 475 kts 39°
2026-05-06 13:05 28.77787 70.77832 36702 ft 475 kts 39°
2026-05-06 13:06 28.82263 70.83370 36697 ft 475 kts 39°
2026-05-06 13:06 28.86738 70.88916 36721 ft 475 kts 39°
2026-05-06 13:07 28.91207 70.94461 36708 ft 475 kts 39°
2026-05-06 13:07 28.95672 71.00010 36703 ft 474 kts 39°
2026-05-06 13:08 29.00136 71.05555 36709 ft 474 kts 39°
2026-05-06 13:08 29.04592 71.11108 36730 ft 474 kts 39°
2026-05-06 13:09 29.09046 71.16662 36720 ft 473 kts 39°
2026-05-06 13:09 29.13494 71.22213 36707 ft 473 kts 39°
2026-05-06 13:10 29.17932 71.27759 36718 ft 473 kts 39°
2026-05-06 13:10 29.22366 71.33315 36720 ft 473 kts 39°
2026-05-06 13:11 29.26799 71.38877 36722 ft 472 kts 39°
2026-05-06 13:11 29.31225 71.44446 36718 ft 473 kts 39°
2026-05-06 13:12 29.35608 71.50068 36723 ft 473 kts 40°
2026-05-06 13:12 29.39976 71.55724 36745 ft 474 kts 40°
2026-05-06 13:13 29.44335 71.61369 36729 ft 472 kts 40°
2026-05-06 13:13 29.48696 71.67010 36725 ft 472 kts 40°
2026-05-06 13:14 29.53059 71.72642 36725 ft 472 kts 40°
2026-05-06 13:14 29.57422 71.78274 36724 ft 472 kts 40°
2026-05-06 13:15 29.61782 71.83926 36729 ft 472 kts 40°
2026-05-06 13:15 29.66131 71.89589 36729 ft 472 kts 40°
2026-05-06 13:16 29.70486 71.95249 36751 ft 473 kts 40°
2026-05-06 13:16 29.74837 72.00919 36753 ft 473 kts 40°
2026-05-06 13:17 29.79184 72.06595 36744 ft 473 kts 40°
2026-05-06 13:17 29.83528 72.12272 36737 ft 472 kts 40°
2026-05-06 13:18 29.87373 72.18514 36720 ft 489 kts 57°
2026-05-06 13:18 29.89779 72.25950 36743 ft 497 kts 64°
2026-05-06 13:19 29.92054 72.33481 36739 ft 497 kts 64°
2026-05-06 13:19 29.94333 72.41009 36738 ft 497 kts 64°
2026-05-06 13:20 29.96603 72.48545 36730 ft 497 kts 64°
2026-05-06 13:20 29.98849 72.56029 36728 ft 497 kts 64°
2026-05-06 13:21 30.01489 72.63314 36752 ft 485 kts 51°
2026-05-06 13:21 30.05526 72.69335 36741 ft 470 kts 40°
2026-05-06 13:22 30.09193 72.74030 36738 ft 470 kts 40°
2026-05-06 13:22 30.13561 72.79666 36736 ft 471 kts 40°
2026-05-06 13:23 30.17919 72.85312 36740 ft 471 kts 40°
2026-05-06 13:23 30.22280 72.90954 36737 ft 471 kts 40°
2026-05-06 13:24 30.26635 72.96609 36754 ft 471 kts 40°
2026-05-06 13:24 30.30986 73.02281 36747 ft 471 kts 40°
2026-05-06 13:25 30.35335 73.07955 36745 ft 471 kts 40°
2026-05-06 13:25 30.39681 73.13625 36747 ft 471 kts 40°
2026-05-06 13:26 30.44030 73.19303 36774 ft 471 kts 40°
2026-05-06 13:26 30.48363 73.24979 36767 ft 470 kts 40°
2026-05-06 13:27 30.52700 73.30656 36791 ft 470 kts 40°
2026-05-06 13:27 30.57028 73.36340 36781 ft 470 kts 40°
2026-05-06 13:28 30.61347 73.42028 36768 ft 470 kts 40°
2026-05-06 13:28 30.65665 73.47722 36762 ft 470 kts 41°
2026-05-06 13:28 30.67824 73.50571 36083 ft 470 kts 41°
2026-05-06 13:29 30.69984 73.53417 35018 ft 468 kts 41°
2026-05-06 13:29 30.72112 73.56230 34152 ft 460 kts 41°
2026-05-06 13:29 30.74205 73.59006 33236 ft 452 kts 41°
2026-05-06 13:29 30.76259 73.61731 32266 ft 444 kts 42°
2026-05-06 13:30 30.78278 73.64411 31287 ft 437 kts 42°
2026-05-06 13:30 30.80275 73.67053 30351 ft 435 kts 42°
2026-05-06 13:30 30.82280 73.69695 29263 ft 436 kts 43°
2026-05-06 13:30 30.84293 73.72349 28133 ft 439 kts 43°
2026-05-06 13:31 30.86320 73.75027 27063 ft 442 kts 43°
2026-05-06 13:31 30.88369 73.77738 25909 ft 451 kts 43°
2026-05-06 13:31 30.90450 73.80495 24763 ft 456 kts 44°
2026-05-06 13:31 30.92533 73.83266 23640 ft 450 kts 44°
2026-05-06 13:32 30.94565 73.85986 22487 ft 440 kts 44°
2026-05-06 13:32 30.96512 73.88604 22048 ft 414 kts 44°
2026-05-06 13:32 30.98327 73.91050 21893 ft 384 kts 44°
2026-05-06 13:32 31.00015 73.93320 21753 ft 358 kts 43°
2026-05-06 13:33 31.01606 73.95449 21418 ft 341 kts 43°
2026-05-06 13:33 31.03150 73.97499 20821 ft 333 kts 43°
2026-05-06 13:33 31.04672 73.99508 20167 ft 329 kts 43°
2026-05-06 13:33 31.06179 74.01498 19540 ft 325 kts 43°
2026-05-06 13:34 31.07663 74.03467 18938 ft 321 kts 44°
2026-05-06 13:34 31.09127 74.05418 18349 ft 317 kts 44°
2026-05-06 13:34 31.10572 74.07352 17710 ft 314 kts 44°
2026-05-06 13:34 31.11999 74.09266 17053 ft 312 kts 44°
2026-05-06 13:35 31.13434 74.11138 16497 ft 305 kts 41°
2026-05-06 13:35 31.14995 74.12760 15951 ft 298 kts 33°
2026-05-06 13:35 31.16694 74.14109 15380 ft 293 kts 27°
2026-05-06 13:35 31.18494 74.15190 14815 ft 289 kts 20°
2026-05-06 13:36 31.20367 74.15996 14249 ft 286 kts 13°
2026-05-06 13:36 31.22290 74.16532 13700 ft 283 kts
2026-05-06 13:36 31.24211 74.16963 13232 ft 277 kts
2026-05-06 13:36 31.26084 74.17390 12782 ft 271 kts
2026-05-06 13:37 31.27925 74.17810 12255 ft 269 kts
2026-05-06 13:37 31.29759 74.18226 11714 ft 268 kts
2026-05-06 13:37 31.31586 74.18641 11163 ft 267 kts
2026-05-06 13:37 31.33397 74.19052 10914 ft 266 kts
2026-05-06 13:38 31.35220 74.19464 10799 ft 268 kts
2026-05-06 13:38 31.37053 74.19876 10683 ft 268 kts
2026-05-06 13:38 31.38876 74.20285 10560 ft 267 kts
2026-05-06 13:38 31.40700 74.20693 10453 ft 268 kts
2026-05-06 13:39 31.42528 74.21105 10322 ft 267 kts
2026-05-06 13:39 31.44345 74.21518 10210 ft 266 kts
2026-05-06 13:39 31.46166 74.21934 10088 ft 266 kts
2026-05-06 13:39 31.47979 74.22347 9969 ft 266 kts
2026-05-06 13:40 31.49793 74.22761 9849 ft 266 kts
2026-05-06 13:40 31.51606 74.23171 9728 ft 266 kts
2026-05-06 13:40 31.53446 74.23584 9124 ft 269 kts
2026-05-06 13:40 31.55262 74.23995 8576 ft 265 kts
2026-05-06 13:41 31.57065 74.24408 8009 ft 263 kts
2026-05-06 13:41 31.58847 74.24818 7500 ft 259 kts
2026-05-06 13:41 31.60582 74.25214 7418 ft 258 kts
2026-05-06 13:41 31.62352 74.25615 7352 ft 259 kts
2026-05-06 13:42 31.64089 74.26165 7243 ft 261 kts 20°
2026-05-06 13:42 31.65743 74.27106 6782 ft 267 kts 26°
2026-05-06 13:42 31.67360 74.28083 6641 ft 254 kts 26°
2026-05-06 13:42 31.68850 74.28989 6520 ft 236 kts 26°
2026-05-06 13:43 31.70272 74.29908 6262 ft 227 kts 36°
2026-05-06 13:43 31.71325 74.31234 5885 ft 226 kts 59°
2026-05-06 13:43 31.71844 74.32912 5749 ft 211 kts 81°
2026-05-06 13:43 31.71823 74.34584 5419 ft 204 kts 102°
2026-05-06 13:44 31.71367 74.36145 5005 ft 202 kts 111°
2026-05-06 13:44 31.70855 74.37687 4530 ft 205 kts 111°
2026-05-06 13:44 31.70160 74.39156 4105 ft 204 kts 131°
2026-05-06 13:44 31.69078 74.40192 3911 ft 198 kts 152°
2026-05-06 13:45 31.67786 74.40695 3580 ft 193 kts 173°
2026-05-06 13:45 31.65223 74.40688 3036 ft 176 kts 181°
2026-05-06 13:45 31.64043 74.40667 2802 ft 161 kts 180°
2026-05-06 13:46 31.62972 74.40649 2577 ft 151 kts 180°
2026-05-06 13:46 31.61921 74.40631 2375 ft 148 kts 179°
2026-05-06 13:46 31.60905 74.40612 2174 ft 145 kts 179°
2026-05-06 13:46 31.59899 74.40594 1981 ft 144 kts 179°
2026-05-06 13:47 31.58897 74.40577 1786 ft 143 kts 179°
2026-05-06 13:47 31.57903 74.40561 1601 ft 142 kts 179°
2026-05-06 13:47 31.56912 74.40543 1419 ft 142 kts 180°
2026-05-06 13:47 31.55924 74.40524 1221 ft 142 kts 181°
2026-05-06 13:48 31.54935 74.40504 1023 ft 142 kts 182°
2026-05-06 13:48 31.53948 74.40484 803 ft 141 kts 182°
2026-05-06 13:48 31.53020 74.40455 721 ft 107 kts 180°
2026-05-06 13:48 31.52581 74.40466 717 ft 19 kts 180°
2026-05-06 13:49 31.52555 74.40466 719 ft 7 kts 180°
2026-05-06 13:49 31.52418 74.40463 718 ft 23 kts 181°
2026-05-06 13:49 31.52255 74.40459 721 ft 23 kts 181°
2026-05-06 13:49 31.52090 74.40455 721 ft 24 kts 181°
2026-05-06 13:50 31.51917 74.40454 723 ft 25 kts 180°
2026-05-06 13:50 31.51723 74.40451 719 ft 33 kts 181°
2026-05-06 13:50 31.51546 74.40455 719 ft 11 kts 149°
2026-05-06 13:50 31.51518 74.40520 719 ft 8 kts 87°
2026-05-06 13:51 31.51511 74.40573 721 ft 6 kts 102°
2026-05-06 13:51 31.51514 74.40616 719 ft 7 kts 74°
2026-05-06 13:51 31.51600 74.40660 722 ft 16 kts 358°
2026-05-06 13:51 31.51702 74.40697 724 ft 15 kts 61°
2026-05-06 13:52 31.51723 74.40809 723 ft 13 kts 58°
2026-05-06 13:52 31.51798 74.40836 723 ft 11 kts
2026-05-06 13:52 31.51898 74.40837 721 ft 18 kts
2026-05-06 13:52 31.52030 74.40839 721 ft 19 kts
2026-05-06 13:53 31.52069 74.40831 721 ft 2 kts 317°
2026-05-06 13:53 31.52073 74.40818 721 ft 2 kts 288°
2026-05-06 13:53 31.52075 74.40791 721 ft 3 kts 275°
2026-05-06 13:53 31.52076 74.40757 721 ft 0 kts 271°
2026-05-06 13:54 31.52076 74.40752 721 ft 0 kts 272°